Find Starlink 5088

NORAD ID: 54000 Int'l Des: 2022-125 Owner: SPXS Country: US Constellation: starlink operational
LEOCIRCULAR

当前视图

正在加载3D地球...

关于 Starlink 5088

正在加载描述...

即将过境

Passes for default location (London). Set your location on the main map for personalized predictions.

高度历史

Loading altitude history...

两行轨道根数

1 54000U 22125AN 26151.51250389 .00008046 00000-0 52360-3 0 9996
2 54000 53.1947 192.4882 0001432 78.6677 281.4475 15.08801505202104
Epoch: May 31, 2026 • Age: 7 hours

当前状态

高度 544.1 km
速度 7.59 km/s
星下点 -13.98°S, 160.45°W
发射日期 Oct 5, 2022
运行时间 3.6 years
类型 internet

技术详情

分类 Payload
质量 305.00 kg
干质量 290.00 kg
总质量 305.00 kg
长度 0.20 m
直径 2.80 m
跨度 9.00 m
形状 Box + pan
制造商 SPXS
平台类型 Starlink
阶段状态 In Orbit
所有者/国家 SPXS/US

Most Searched